Time,TemperatureF,DewpointF,PressureIn,WindDirection,WindDirectionDegrees,WindSpeedMPH,WindSpeedGustMPH,Humidity,HourlyPrecipIn,Conditions,Clouds,dailyrainin,SolarRadiationWatts/m^2,SoftwareType,DateUTC
2013-11-19 00:02:00,14.0,12.0,-100.00,East,86,0.0,0.0,90,0.00,,,0.00,0.000000,,2013-11-19 06:02:00,
2013-11-19 00:42:00,13.0,11.0,-100.00,NE,53,0.0,0.0,91,0.00,,,0.00,0.000000,,2013-11-19 06:42:00,
2013-11-19 00:52:00,13.0,11.0,-100.00,NE,53,0.0,0.0,91,0.00,,,0.00,0.000000,,2013-11-19 06:52:00,
2013-11-19 01:01:00,13.0,11.0,-100.00,NE,53,0.0,0.0,91,0.00,,,0.00,0.000000,,2013-11-19 07:01:00,
2013-11-19 01:42:00,13.0,11.0,-100.00,ESE,118,0.0,1.0,90,0.00,,,0.00,0.000000,,2013-11-19 07:42:00,
2013-11-19 01:52:00,13.0,11.0,-100.00,ESE,118,0.0,1.0,90,0.00,,,0.00,0.000000,,2013-11-19 07:52:00,
2013-11-19 02:01:00,13.0,11.0,-100.00,ESE,118,0.0,1.0,90,0.00,,,0.00,0.000000,,2013-11-19 08:01:00,
2013-11-19 02:42:00,12.0,9.0,-100.00,NE,43,0.0,0.0,89,0.00,,,0.00,0.000000,,2013-11-19 08:42:00,
2013-11-19 02:52:00,12.0,9.0,-100.00,NE,43,0.0,0.0,89,0.00,,,0.00,0.000000,,2013-11-19 08:52:00,
2013-11-19 03:02:00,12.0,9.0,-100.00,NE,43,0.0,0.0,89,0.00,,,0.00,0.000000,,2013-11-19 09:02:00,
2013-11-19 03:43:00,11.0,8.0,-100.00,ENE,70,0.0,1.0,88,0.00,,,0.00,0.000000,,2013-11-19 09:43:00,
2013-11-19 03:53:00,11.0,8.0,-100.00,ENE,70,0.0,1.0,88,0.00,,,0.00,0.000000,,2013-11-19 09:53:00,
2013-11-19 04:03:00,11.0,8.0,-100.00,ENE,70,0.0,1.0,88,0.00,,,0.00,0.000000,,2013-11-19 10:03:00,
2013-11-19 04:43:00,11.0,8.0,-100.00,East,91,0.0,3.0,88,0.00,,,0.00,0.000000,,2013-11-19 10:43:00,
2013-11-19 04:53:00,11.0,8.0,-100.00,East,91,0.0,3.0,88,0.00,,,0.00,0.000000,,2013-11-19 10:53:00,
2013-11-19 05:02:00,11.0,8.0,-100.00,East,91,0.0,3.0,88,0.00,,,0.00,0.000000,,2013-11-19 11:02:00,
2013-11-19 05:42:00,11.0,8.0,-100.00,ESE,118,0.0,3.0,88,0.00,,,0.00,0.000000,,2013-11-19 11:42:00,
2013-11-19 05:52:00,11.0,8.0,-100.00,ESE,118,0.0,3.0,88,0.00,,,0.00,0.000000,,2013-11-19 11:52:00,
2013-11-19 06:01:00,11.0,8.0,-100.00,ESE,118,0.0,3.0,88,0.00,,,0.00,0.000000,,2013-11-19 12:01:00,
2013-11-19 06:42:00,12.0,9.0,-100.00,East,82,1.0,4.0,89,0.00,,,0.00,0.000000,,2013-11-19 12:42:00,
2013-11-19 06:52:00,12.0,9.0,-100.00,East,82,1.0,4.0,89,0.00,,,0.00,0.000000,,2013-11-19 12:52:00,
2013-11-19 07:01:00,12.0,9.0,-100.00,East,82,1.0,4.0,89,0.00,,,0.00,0.000000,,2013-11-19 13:01:00,
2013-11-19 07:42:00,15.0,13.0,-100.00,ESE,104,1.0,4.0,91,0.00,,,0.00,0.000000,,2013-11-19 13:42:00,
2013-11-19 07:52:00,15.0,13.0,-100.00,ESE,104,1.0,4.0,91,0.00,,,0.00,0.000000,,2013-11-19 13:52:00,
2013-11-19 08:02:00,15.0,13.0,-100.00,ESE,104,1.0,4.0,91,0.00,,,0.00,0.000000,,2013-11-19 14:02:00,
2013-11-19 08:42:00,21.0,18.0,-100.00,East,96,3.0,7.0,89,0.00,,,0.00,12.000000,,2013-11-19 14:42:00,
2013-11-19 08:52:00,21.0,18.0,-100.00,East,96,3.0,7.0,89,0.00,,,0.00,12.000000,,2013-11-19 14:52:00,
2013-11-19 09:01:00,21.0,18.0,-100.00,East,96,3.0,7.0,89,0.00,,,0.00,12.000000,,2013-11-19 15:01:00,
2013-11-19 09:43:00,28.0,22.0,-100.00,ESE,109,5.0,8.0,79,0.00,,,0.00,118.000000,,2013-11-19 15:43:00,
2013-11-19 09:54:00,28.0,22.0,-100.00,ESE,109,5.0,8.0,79,0.00,,,0.00,118.000000,,2013-11-19 15:54:00,
2013-11-19 10:04:00,28.0,22.0,-100.00,ESE,109,5.0,8.0,79,0.00,,,0.00,118.000000,,2013-11-19 16:04:00,
2013-11-19 10:43:00,32.0,22.0,-100.00,SE,133,6.0,14.0,66,0.00,,,-99.99,214.000000,,2013-11-19 16:43:00,
2013-11-19 10:52:00,32.0,22.0,-100.00,SE,133,6.0,14.0,66,0.00,,,-99.99,214.000000,,2013-11-19 16:52:00,
2013-11-19 11:02:00,32.0,22.0,-100.00,SE,133,6.0,14.0,66,0.00,,,-99.99,214.000000,,2013-11-19 17:02:00,
2013-11-19 11:43:00,34.0,21.0,-100.00,ESE,120,6.0,14.0,59,0.00,,,0.00,188.000000,,2013-11-19 17:43:00,
2013-11-19 11:52:00,34.0,21.0,-100.00,ESE,120,6.0,14.0,59,0.00,,,0.00,188.000000,,2013-11-19 17:52:00,
2013-11-19 12:02:00,34.0,21.0,-100.00,ESE,120,6.0,14.0,59,0.00,,,0.00,188.000000,,2013-11-19 18:02:00,
2013-11-19 12:42:00,37.0,20.0,-100.00,ESE,118,8.0,18.0,50,0.00,,,0.00,266.000000,,2013-11-19 18:42:00,
2013-11-19 12:52:00,37.0,20.0,-100.00,ESE,118,8.0,18.0,50,0.00,,,0.00,266.000000,,2013-11-19 18:52:00,
2013-11-19 13:01:00,37.0,20.0,-100.00,ESE,118,8.0,18.0,50,0.00,,,0.00,266.000000,,2013-11-19 19:01:00,
2013-11-19 13:42:00,39.0,21.0,-100.00,SE,144,6.0,18.0,48,0.00,,,0.00,232.000000,,2013-11-19 19:42:00,
2013-11-19 13:52:00,39.0,21.0,-100.00,SE,144,6.0,18.0,48,0.00,,,0.00,232.000000,,2013-11-19 19:52:00,
2013-11-19 14:02:00,39.0,21.0,-100.00,SE,144,6.0,18.0,48,0.00,,,0.00,232.000000,,2013-11-19 20:02:00,
2013-11-19 14:42:00,40.0,22.0,-100.00,SE,146,7.0,19.0,48,0.00,,,0.00,154.000000,,2013-11-19 20:42:00,
2013-11-19 14:52:00,40.0,22.0,-100.00,SE,146,7.0,19.0,48,0.00,,,0.00,154.000000,,2013-11-19 20:52:00,
2013-11-19 15:02:00,40.0,22.0,-100.00,SE,146,7.0,19.0,48,0.00,,,0.00,154.000000,,2013-11-19 21:02:00,
2013-11-19 15:43:00,40.0,23.0,-100.00,SE,131,6.0,16.0,51,0.00,,,0.00,107.000000,,2013-11-19 21:43:00,
2013-11-19 15:54:00,40.0,23.0,-100.00,SE,131,6.0,16.0,51,0.00,,,0.00,107.000000,,2013-11-19 21:54:00,
2013-11-19 16:03:00,40.0,23.0,-100.00,SE,131,6.0,16.0,51,0.00,,,0.00,107.000000,,2013-11-19 22:03:00,
2013-11-19 16:43:00,39.0,23.0,-100.00,SE,142,5.0,18.0,53,0.00,,,0.00,38.000000,,2013-11-19 22:43:00,
2013-11-19 16:53:00,39.0,23.0,-100.00,SE,142,5.0,18.0,53,0.00,,,0.00,38.000000,,2013-11-19 22:53:00,
2013-11-19 17:02:00,39.0,23.0,-100.00,SE,142,5.0,18.0,53,0.00,,,0.00,38.000000,,2013-11-19 23:02:00,
2013-11-19 17:43:00,38.0,23.0,-100.00,SE,142,6.0,17.0,54,0.00,,,0.00,4.000000,,2013-11-19 23:43:00,
2013-11-19 17:52:00,38.0,23.0,-100.00,SE,142,6.0,17.0,54,0.00,,,0.00,4.000000,,2013-11-19 23:52:00,
2013-11-19 18:02:00,38.0,23.0,-100.00,SE,142,6.0,17.0,54,0.00,,,0.00,4.000000,,2013-11-20 00:02:00,
2013-11-19 18:42:00,39.0,24.0,-100.00,SSE,152,5.0,15.0,55,0.00,,,0.00,0.000000,,2013-11-20 00:42:00,
2013-11-19 18:52:00,39.0,24.0,-100.00,SSE,152,5.0,15.0,55,0.00,,,0.00,0.000000,,2013-11-20 00:52:00,
2013-11-19 19:01:00,39.0,24.0,-100.00,SSE,152,5.0,15.0,55,0.00,,,0.00,0.000000,,2013-11-20 01:01:00,
2013-11-19 19:42:00,40.0,25.0,-100.00,SSE,159,6.0,16.0,54,0.00,,,0.00,0.000000,,2013-11-20 01:42:00,
2013-11-19 19:52:00,40.0,25.0,-100.00,SSE,159,6.0,16.0,54,0.00,,,0.00,0.000000,,2013-11-20 01:52:00,
2013-11-19 20:01:00,40.0,25.0,-100.00,SSE,159,6.0,16.0,54,0.00,,,0.00,0.000000,,2013-11-20 02:01:00,
2013-11-19 20:42:00,40.0,25.0,-100.00,SSE,166,7.0,18.0,55,0.00,,,0.00,0.000000,,2013-11-20 02:42:00,
2013-11-19 20:52:00,40.0,25.0,-100.00,SSE,166,7.0,18.0,55,0.00,,,0.00,0.000000,,2013-11-20 02:52:00,
2013-11-19 21:02:00,40.0,25.0,-100.00,SSE,166,7.0,18.0,55,0.00,,,0.00,0.000000,,2013-11-20 03:02:00,
2013-11-19 21:44:00,40.0,26.0,-100.00,SSE,162,7.0,17.0,56,0.00,,,0.00,0.000000,,2013-11-20 03:44:00,
2013-11-19 21:54:00,40.0,26.0,-100.00,SSE,162,7.0,17.0,56,0.00,,,0.00,0.000000,,2013-11-20 03:54:00,
2013-11-19 22:03:00,40.0,26.0,-100.00,SSE,162,7.0,17.0,56,0.00,,,0.00,0.000000,,2013-11-20 04:03:00,
2013-11-19 22:43:00,42.0,26.0,-100.00,South,175,8.0,19.0,52,0.00,,,0.00,0.000000,,2013-11-20 04:43:00,
2013-11-19 22:52:00,42.0,26.0,-100.00,South,175,8.0,19.0,52,0.00,,,0.00,0.000000,,2013-11-20 04:52:00,
2013-11-19 23:02:00,42.0,26.0,-100.00,South,175,8.0,19.0,52,0.00,,,0.00,0.000000,,2013-11-20 05:02:00,
2013-11-19 23:43:00,42.0,26.0,-100.00,South,169,7.0,19.0,52,0.00,,,0.00,0.000000,,2013-11-20 05:43:00,
2013-11-19 23:53:00,42.0,26.0,-100.00,South,169,7.0,19.0,52,0.00,,,0.00,0.000000,,2013-11-20 05:53:00,